Regional Weather Roundup
Issued by NWS Newport/Morehead, NC

Current Version | Previous Version | Text Only | Print | Product List | Glossary On
Versions: 1 2 3 4 5 6 7 8 9 10 11 12 13 14 15 16 17 18 19 20 21 22 23 24 25 26 27 28 29 30 31 32 33 34 35 36 37 38 39 40 41 42 43 44 45 46 47 48 49 50
299
ASUS42 KMHX 211713
RWRMHX
WEATHER ROUNDUP FOR EASTERN NORTH CAROLINA
NATIONAL WEATHER SERVICE NEWPORT/MOREHEAD CITY NC
1200 PM EST TUE FEB 21 2017

NOTE: "FAIR" INDICATES FEW OR NO CLOUDS BELOW 12,000 FEET
WITH NO SIGNIFICANT WEATHER AND/OR OBSTRUCTIONS TO VISIBILITY

NCZ015>017-031-032-045>047-102-103-211800-
NORTH COAST

CITY           SKY/WX    TMP DP  RH WIND       PRES   REMARKS
EDENTON        NOT AVBL
ELIZABETH CITY SUNNY     58  40  51 NE8       30.28F
KITTY HAWK     NOT AVBL
MANTEO         SUNNY     55  43  62 E13       30.27F

$$

NCZ045>047-081-094-103-104-211800-
CENTRAL COAST

CITY           SKY/WX    TMP DP  RH WIND       PRES   REMARKS
FRISCO         SUNNY     64  51  62 VRB6      30.23F

$$

NCZ095-097-098-100-101-211800-
SOUTHERN COAST

CITY           SKY/WX    TMP DP  RH WIND       PRES   REMARKS
BEAUFORT       NOT AVBL
CEDAR ISLAND   NOT AVBL
JACKSONVILLE   NOT AVBL
PINEY ISLAND   SUNNY    N/A N/A N/A NE15      30.24S
WILMINGTON     MOSUNNY   64  48  56 E8        30.22F


$$

NCZ011>013-027>030-043-044-078>080-089-090>093-098-211800-
COASTAL PLAIN

CITY           SKY/WX    TMP DP  RH WIND       PRES   REMARKS
AHOSKIE          N/A     55  39  54 NE5       30.28F
CLINTON        MOSUNNY   63  42  46 CALM      30.25F
ELIZABETHTOWN  CLOUDY    64  42  43 E6        30.22F
GOLDSBORO      MOSUNNY   60  40  47 E7        30.23F
GREENVILLE     CLOUDY    59  45  58 E3        30.26F
HAVELOCK       MOSUNNY   59  47  64 NE9       30.25F
KENANSVILLE    NOT AVBL
KINSTON        MOSUNNY   59  45  58 NE5       30.25F
NEW BERN       MOSUNNY   61  48  62 E6        30.25F
RICHLANDS      NOT AVBL
ROCKY MOUNT    PTSUNNY   58  41  53 VRB6      30.26F
WASHINGTON     MOSUNNY   60  46  60 E6        30.26F
WHITEVILLE     MOSUNNY   66  45  45 NE3       30.21F

$$

AMZ130-135-150-152-154-156-158-170-250-252-270-ANZ085-086-088-633-658-670-211800-
MARINE OBSERVATIONS

STATION/POSITION TIME  TEMP    WIND        PRES    WAVE   SWELL
                       AIR SEA DIR/SP/G            HT/PER HT/PER
                 (UTC) (F)     (DEG/KT/KT) (MB)    (FT/S) (FT/S)
CHESAPEAKE LIGHT NOT AVBL
64 E VA BEACH    1650   51 54   60/ 14/ 16 1025.0    4/ 7   3/ 7
DUCK             1642   49 48   40/ 11/ 12 1024.8
2 E DUCK         1700      49                N/A     4/ 8
OREGON INLET     1642   51 51   20/ 12/ 13 1024.4
13E OREGON INLT  NOT AVBL
HATTERAS CG      1642   56 57   20/ 10/ 14 1023.5
DIAMOND BUOY     1650   64 75  110/ 10/ 16 1023.3    5/10   5/10
CAPE LOOKOUT     1700   57      30/ 13/ 15 1023.1
BEAUFORT LAB     1642   63 53   30/  7/ 11 1022.7
30 SE NEW RVR IN 1608   58      40/ 14/ 19 1023.8
30 SE NEW RVR IN 1643      67                N/A     4/11   2/11
27 SE WRIGHTSVLE 1608   59 63   60/ 14/ 19 1023.6
5 SE WRIGHTSVLE  1608   55 56   50/ 12/ 17 1024.0
225 S CAPE HAT   1650   65 71   60/ 14/ 17 1021.5    5/ 7   3/ 7
41 SE CHARLESTON 1650   69 66   90/ 16/ 17 1020.4    4/ 6   2/ 8

$$




USA.gov is the U.S. government's official web portal to all federal, state and local government web resources and services.